星链-2284 (STARLINK-2284 )

导读 | 豆包AI

STARLINK-2284是美国SpaceX公司星链(Starlink)星座的一颗卫星,于2021年3月24日发射。作为星链互联网星座的组成部分,它运行在近地轨道,旨在为全球提供低成本、低延迟的宽带互联网接入服务。星链计划已部署数千颗卫星,虽推动了全球网络覆盖,但也引发天文观测干扰、太空碎片风险等争议,该卫星是星座组网进程中的一员。

基本信息
目录编号:
48016
目录名称:
STARLINK-2284
国际标识:
2021-024AR
轨道中心:
EARTH
卫星名称:
星链-2284
卫星全名:
星链-2284 (STARLINK-2284 )
卫星状态:
已陨落 最后检测时间 2025-06-15
发射日期:
2021-03-24 UTC
国别 :
美国 (US)
星等 :
--
轨道信息
数据来源 国际轨道数据
星历时间: 2025-06-16T02:14:36+0800
轨道信息已过期271天
半长轴: 6526.083km
偏心率: 0.0007882
轨道倾角: 53.016°
近地点辐角 305.837°
升交点赤经 293.562°
平近点角 208.778°
近地点: 142.804km
远地点: 153.092km
周期: 87.446分钟
每日圈数: 16.467357
详细信息
固有亮度:
5
最大亮度:
2.5
卫星平台:
Starlink V1.0
覆盖范围:
全球
运营商:
太空探索技术公司
运营商所在国:
美国
制造商(研发单位):
太空探索技术公司
制造商所在国:
美国
使用方式:
暂无
卫星简介
星链(Starlink)计划是由太空探索技术公司(SpaceX)提出的一个巨型低轨卫星互联网星座项目,计划在2019年至2024年间在太空搭建由约1.2万颗卫星组成的“星链”网络,其中1584颗将部署在地球上空550千米处的近地轨道,并从2020年开始工作。该卫星仍在工作。